Weather History for Lawrence, KS

Change the Weather History Date:

Sunday, January 29, 2012

  Actual Average Record
Temperature  
Mean Temperature 34 °F 30 °F  
Max Temperature 53 °F 41 °F 69 °F (2013)
Min Temperature 15 °F 19 °F 1 °F (2014)
Degree Days  
Heating Degree Days 31 35  
Month to date heating degree days 922 1036  
Since 1 July heating degree days 2836 3079  
Cooling Degree Days 0 0  
Month to date cooling degree days 0 0  
Year to date cooling degree days 0 0  
Moisture  
Dew Point 14 °F    
Average Humidity 47    
Maximum Humidity 74    
Minimum Humidity 19    
Precipitation  
Precipitation 0.00 in 0.04 in 0.55 in (2001)
Month to date precipitation 0.01 0.92  
Year to date precipitation 0.01 0.92  
Sea Level Pressure  
Sea Level Pressure 30.21 in    
Wind  
Wind Speed 5 mph (South)    
Max Wind Speed 13 mph    
Max Gust Speed 22 mph    
Visibility 10 miles    
Events      
T = Trace of Precipitation, MM = Missing Value Source: NWS Daily Summary

Daily Weather History Graph

Daily Weather History Graph

Search for Another Location

Airport:

Trip Planner

Search our weather history database for the weather conditions in past years. The results will help you decide how hot, cold, wet, or windy it might be!

Date:

Astronomy

Jan. 29, 2012 Rise Set
Actual Time 7:30 AM CST 5:38 PM CST
Civil Twilight 7:01 AM CST 6:06 PM CST
Nautical Twilight 6:29 AM CST 6:38 PM CST
Astronomical Twilight 5:58 AM CST 7:10 PM CST
Moon 10:25 AM CST (1/29) No Moon Set
Length of Visible Light 11h 04m
Length of Day
10h 07m
Waxing Crescent, 37% of the Moon is Illuminated
Jan 29
Waxing Crescent
Jan 30
First Quarter
Feb 7
Full
Feb 14
Last Quarter
Feb 21
New

Hourly Weather History & Observations

Time (CST) Temp. Windchill Dew Point Humidity Pressure Visibility Wind Dir Wind Speed Gust Speed Precip Events Conditions
12:52 AM 34.0 °F 28.0 °F 10.9 °F 38% 30.26 in 10.0 mi West 6.9 mph - N/A   Mostly Cloudy
1:52 AM 33.1 °F 28.7 °F 10.0 °F 38% 30.25 in 10.0 mi West 4.6 mph - N/A   Mostly Cloudy
2:52 AM 28.9 °F 23.9 °F 10.0 °F 45% 30.26 in 10.0 mi West 4.6 mph - N/A   Clear
3:52 AM 23.0 °F - 9.0 °F 55% 30.25 in 10.0 mi Calm Calm - N/A   Clear
4:52 AM 25.0 °F 20.7 °F 10.0 °F 53% 30.25 in 10.0 mi WSW 3.5 mph - N/A   Clear
5:52 AM 21.9 °F - 10.0 °F 60% 30.26 in 10.0 mi Calm Calm - N/A   Clear
6:52 AM 24.1 °F 18.2 °F 9.0 °F 53% 30.27 in 10.0 mi NW 4.6 mph - N/A   Clear
7:52 AM 17.1 °F 11.7 °F 10.0 °F 74% 30.29 in 10.0 mi NNW 3.5 mph - N/A   Clear
8:52 AM 28.9 °F - 17.1 °F 61% 30.30 in 10.0 mi Calm Calm - N/A   Clear
9:52 AM 37.0 °F 34.5 °F 12.9 °F 37% 30.31 in 10.0 mi Variable 3.5 mph - N/A   Partly Cloudy
10:52 AM 43.0 °F 41.3 °F 12.0 °F 28% 30.30 in 10.0 mi NE 3.5 mph - N/A   Partly Cloudy
11:52 AM 45.0 °F 42.6 °F 12.0 °F 26% 30.27 in 10.0 mi South 4.6 mph - N/A   Partly Cloudy
12:52 PM 46.9 °F - 12.0 °F 24% 30.24 in 10.0 mi SE 6.9 mph - N/A   Clear
1:52 PM 48.9 °F - 10.0 °F 21% 30.21 in 10.0 mi Variable 3.5 mph - N/A   Mostly Cloudy
2:52 PM 52.0 °F - 10.0 °F 19% 30.19 in 10.0 mi SSE 8.1 mph - N/A   Scattered Clouds
3:52 PM 52.0 °F - 10.9 °F 19% 30.18 in 10.0 mi South 6.9 mph - N/A   Clear
4:52 PM 50.0 °F - 12.9 °F 23% 30.16 in 10.0 mi South 9.2 mph - N/A   Partly Cloudy
5:52 PM 43.0 °F 40.3 °F 12.9 °F 30% 30.15 in 10.0 mi SSE 4.6 mph - N/A   Mostly Cloudy
6:52 PM 43.0 °F 39.5 °F 15.1 °F 32% 30.15 in 10.0 mi East 5.8 mph - N/A   Partly Cloudy
7:52 PM 41.0 °F 39.0 °F 18.0 °F 40% 30.15 in 10.0 mi ESE 3.5 mph - N/A   Overcast
8:52 PM 37.9 °F 35.5 °F 17.1 °F 43% 30.12 in 10.0 mi SSE 3.5 mph - N/A   Mostly Cloudy
9:52 PM 45.0 °F 41.8 °F 23.0 °F 42% 30.10 in 10.0 mi SSW 5.8 mph - N/A   Clear
10:52 PM 45.0 °F 43.5 °F 26.1 °F 48% 30.09 in 10.0 mi South 3.5 mph - N/A   Clear
11:52 PM 46.0 °F 41.4 °F 28.9 °F 51% 30.07 in 10.0 mi SSW 9.2 mph - N/A   Clear